Flag for U.S.A. Weather past 2 weeks in Sandpoint, Idaho, U.S.A.

Now
64 °F

Partly sunny.


Feels Like: 64 °F
Forecast: 36 / 67 °F
Wind: 3 mph from Southwest

Location: Sandpoint Airport

Current Time: Sep 3, 2015 at 6:52:51 PM

Latest Report: Sep 3, 2015 at 6:15 PM


Visibility: 10 mi

Pressure: 29.91 "Hg (27.76 "Hg at 636m altitude)

Humidity: 30%

Dew point: 32 °F

Location of SandpointLocation

Historic Weather in Sandpoint — Graph

°F

Sandpoint temperature yesterday

Maximum temperature yesterday: 64 °F (at 11:15 AM)
Minimum temperature yesterday: 52 °F (at 3:35 AM)
Average temperature yesterday: 58 °F

Past Weeks' High & Low Weather Summary

 TemperatureHumidityPressure
High88 °F (Aug 19, 5:15 PM)100% (Aug 29, 11:15 PM)30.22 "Hg (Aug 29, 11:15 PM)
Low36 °F (Aug 23, 5:55 AM)15% (Aug 19, 5:35 PM)29.63 "Hg (Aug 21, 1:35 AM)
Average61 °F56%29.92 "Hg
* Reported Aug 19 5:15 PM — Sep 3 5:55 PM, Sandpoint, Weather by CustomWeather, © 2015

Note: Actual official high and low records may vary slightly from our data, if they occured in-between our weather recording intervals... More about our weather records

Advertising

Sandpoint weather history for previous 24 hours

 ConditionsComfort  
Time TempWeatherWind HumidityBarometerVisibility
5:55 PM
Thu, Sep 3
64 °FPartly sunny.3 mph30%29.91 "Hg10 mi
5:35 PM64 °FMostly cloudy.7 mph32%29.91 "Hg10 mi
5:15 PM64 °FScattered clouds.5 mph34%29.90 "Hg10 mi
4:55 PM63 °FScattered clouds.6 mph37%29.90 "Hg10 mi
4:35 PM63 °FScattered clouds.8 mph34%29.90 "Hg10 mi
4:15 PM64 °FPartly sunny.8 mph34%29.90 "Hg10 mi
3:55 PM64 °FScattered clouds.10 mph37%29.90 "Hg10 mi
3:15 PM63 °FScattered clouds.3 mph37%29.91 "Hg10 mi
2:15 PM63 °FScattered clouds.8 mph45%29.92 "Hg10 mi
1:55 PM61 °FScattered clouds.5 mph45%29.92 "Hg10 mi
1:35 PM61 °FScattered clouds.No wind45%29.93 "Hg10 mi
1:15 PM61 °FBroken clouds.3 mph48%29.94 "Hg10 mi
12:55 PM59 °FBroken clouds.No wind48%29.94 "Hg10 mi
12:35 PM61 °FScattered clouds.3 mph45%29.94 "Hg10 mi
12:15 PM61 °FScattered clouds.5 mph42%29.94 "Hg10 mi
11:55 AM59 °FBroken clouds.3 mph45%29.95 "Hg10 mi
11:35 AM59 °FPartly sunny.5 mph51%29.95 "Hg10 mi
11:15 AM59 °FPartly sunny.No wind51%29.96 "Hg10 mi
10:55 AM59 °FMostly cloudy.6 mph55%29.96 "Hg10 mi
10:35 AM55 °FOvercast.No wind63%29.96 "Hg10 mi
10:15 AM55 °FOvercast.No wind63%29.96 "Hg10 mi
9:55 AM54 °FOvercast.No wind72%29.96 "Hg10 mi
9:35 AM54 °FPartly sunny.No wind72%29.96 "Hg10 mi
9:15 AM54 °FScattered clouds.No wind77%29.95 "Hg10 mi
8:55 AM54 °FPartly sunny.3 mph77%29.95 "Hg10 mi
8:15 AM50 °FMore clouds than sun.3 mph88%29.95 "Hg10 mi
Weather by CustomWeather, © 2015

See weather overviewHow to use our weather pages